,,,PA_Meas_PMT16A,,PR_Meas_QMR101_102,,RH_Meas_QMH101,,SR_Meas_QMS101,,TA_Meas_QMH101,,GenWind,,GenWind,
date,time,status,PA,status,PR,status,RH,status,SR,status,TA,status,DirAvg,status,SpdAvg,
2011-09-13, 00:00:04,VALID,1009.875,VALID,0.0,VALID,104.0,VALID,0.0,VALID,24.162,VALID,62.0,VALID,0.0,
2011-09-13, 00:01:04,VALID,1009.88,VALID,0.0,VALID,104.0,VALID,0.0,VALID,24.162,VALID,62.0,VALID,0.0,
2011-09-13, 00:02:04,VALID,1009.885,VALID,0.0,VALID,104.0,VALID,0.0,VALID,24.162,VALID,62.0,VALID,0.0,
2011-09-13, 00:03:04,VALID,1009.89,VALID,0.0,VALID,104.0,VALID,0.0,VALID,24.162,VALID,62.0,VALID,0.0,
2011-09-13, 00:04:04,VALID,1009.904,VALID,0.0,VALID,104.0,VALID,0.0,VALID,24.162,VALID,62.0,VALID,0.0,
2011-09-13, 00:05:04,VALID,1009.926,VALID,0.0,VALID,104.0,VALID,0.0,VALID,24.164,VALID,62.0,VALID,0.415,
2011-09-13, 00:06:04,VALID,1009.914,VALID,0.0,VALID,104.0,VALID,0.0,VALID,24.123,VALID,62.0,VALID,0.451,
2011-09-13, 00:07:04,VALID,1009.891,VALID,0.0,VALID,104.0,VALID,0.0,VALID,24.103,VALID,62.0,VALID,0.399,
2011-09-13, 00:08:04,VALID,1009.903,VALID,0.0,VALID,104.0,VALID,0.0,VALID,24.105,VALID,62.0,VALID,0.325,
2011-09-13, 00:09:04,VALID,1009.922,VALID,0.0,VALID,104.0,VALID,0.0,VALID,24.084,VALID,62.0,VALID,0.271,
2011-09-13, 00:10:04,VALID,1009.911,VALID,0.0,VALID,104.0,VALID,0.0,VALID,24.105,VALID,62.0,VALID,0.213,
2011-09-13, 00:11:04,VALID,1009.924,VALID,0.0,VALID,104.0,VALID,0.0,VALID,24.084,VALID,62.0,VALID,0.163,
2011-09-13, 00:12:04,VALID,1009.935,VALID,0.0,VALID,104.0,VALID,0.0,VALID,24.084,VALID,62.0,VALID,0.062,
2011-09-13, 00:13:04,VALID,1009.946,VALID,0.0,VALID,104.0,VALID,0.0,VALID,24.084,VALID,62.0,VALID,0.0,
2011-09-13, 00:14:04,VALID,1009.985,VALID,0.0,VALID,104.0,VALID,0.0,VALID,24.084,VALID,62.0,VALID,0.0,
2011-09-13, 00:15:04,VALID,1009.972,VALID,0.0,VALID,104.0,VALID,0.0,VALID,24.103,VALID,62.0,VALID,0.0,
2011-09-13, 00:16:04,VALID,1009.979,VALID,0.0,VALID,104.0,VALID,0.0,VALID,24.103,VALID,61.0,VALID,0.022,
2011-09-13, 00:17:04,VALID,1009.981,VALID,0.5,VALID,104.0,VALID,0.0,VALID,24.125,VALID,62.0,VALID,0.0,
2011-09-13, 00:18:04,VALID,1010.013,VALID,0.0,VALID,104.0,VALID,0.0,VALID,24.125,VALID,62.0,VALID,0.0,
2011-09-13, 00:19:04,VALID,1010.008,VALID,0.0,VALID,104.0,VALID,0.0,VALID,24.123,VALID,62.0,VALID,0.0,
2011-09-13, 00:20:04,VALID,1010.013,VALID,0.0,VALID,104.0,VALID,0.0,VALID,24.103,VALID,62.0,VALID,0.0,
2011-09-13, 00:21:04,VALID,1010.022,VALID,0.0,VALID,104.0,VALID,0.0,VALID,24.103,VALID,62.0,VALID,0.0,
2011-09-13, 00:22:04,VALID,1010.026,VALID,0.0,VALID,104.0,VALID,0.0,VALID,24.123,VALID,62.0,VALID,0.0,
2011-09-13, 00:23:04,VALID,1009.998,VALID,0.0,VALID,104.0,VALID,0.0,VALID,24.123,VALID,62.0,VALID,0.0,
2011-09-13, 00:24:04,VALID,1009.947,VALID,0.0,VALID,104.0,VALID,0.0,VALID,24.123,VALID,62.0,VALID,0.0,
2011-09-13, 00:25:04,VALID,1009.955,VALID,0.0,VALID,104.0,VALID,0.0,VALID,24.144,VALID,62.0,VALID,0.0,
2011-09-13, 00:26:04,VALID,1009.901,VALID,0.0,VALID,104.0,VALID,0.0,VALID,24.125,VALID,62.0,VALID,0.0,
2011-09-13, 00:27:04,VALID,1009.862,VALID,0.0,VALID,104.0,VALID,0.0,VALID,24.103,VALID,62.0,VALID,0.0,
2011-09-13, 00:28:04,VALID,1009.841,VALID,0.0,VALID,104.0,VALID,0.0,VALID,24.125,VALID,62.0,VALID,0.096,
2011-09-13, 00:29:04,VALID,1009.809,VALID,0.0,VALID,104.0,VALID,0.0,VALID,24.105,VALID,62.0,VALID,0.212,
2011-09-13, 00:30:04,VALID,1009.795,VALID,0.0,VALID,104.0,VALID,0.0,VALID,24.084,VALID,62.0,VALID,0.261,
2011-09-13, 00:31:04,VALID,1009.765,VALID,0.0,VALID,104.0,VALID,0.0,VALID,24.105,VALID,62.0,VALID,0.144,
2011-09-13, 00:32:04,VALID,1009.807,VALID,0.0,VALID,104.0,VALID,0.0,VALID,24.084,VALID,62.0,VALID,0.076,
2011-09-13, 00:33:04,VALID,1009.784,VALID,0.0,VALID,104.0,VALID,0.0,VALID,24.105,VALID,62.0,VALID,0.0,
2011-09-13, 00:34:04,VALID,1009.809,VALID,0.0,VALID,104.0,VALID,0.0,VALID,24.084,VALID,62.0,VALID,0.0,
2011-09-13, 00:35:04,VALID,1009.846,VALID,0.0,VALID,104.0,VALID,0.0,VALID,24.105,VALID,62.0,VALID,0.177,
2011-09-13, 00:36:04,VALID,1009.844,VALID,0.0,VALID,104.0,VALID,0.0,VALID,24.084,VALID,62.0,VALID,0.238,
2011-09-13, 00:37:04,VALID,1009.864,VALID,0.0,VALID,104.0,VALID,0.0,VALID,24.062,VALID,62.0,VALID,0.33,
2011-09-13, 00:38:04,VALID,1009.906,VALID,0.0,VALID,104.0,VALID,0.0,VALID,24.103,VALID,62.0,VALID,0.397,
2011-09-13, 00:39:04,VALID,1009.898,VALID,0.0,VALID,104.0,VALID,0.0,VALID,24.103,VALID,62.0,VALID,0.434,
2011-09-13, 00:40:04,VALID,1009.938,VALID,0.0,VALID,104.0,VALID,0.0,VALID,24.125,VALID,62.0,VALID,0.452,
2011-09-13, 00:41:04,VALID,1009.937,VALID,0.0,VALID,104.0,VALID,0.0,VALID,24.123,VALID,62.0,VALID,0.346,
2011-09-13, 00:42:04,VALID,1009.985,VALID,0.0,VALID,104.0,VALID,0.0,VALID,24.144,VALID,62.0,VALID,0.34,
2011-09-13, 00:43:04,VALID,1009.99,VALID,0.0,VALID,104.0,VALID,0.0,VALID,24.142,VALID,62.0,VALID,0.514,
2011-09-13, 00:44:04,VALID,1010.022,VALID,0.0,VALID,104.0,VALID,0.0,VALID,24.162,VALID,62.0,VALID,0.396,
2011-09-13, 00:45:04,VALID,1010.015,VALID,0.0,VALID,104.0,VALID,0.0,VALID,24.183,VALID,62.0,VALID,0.163,
2011-09-13, 00:46:04,VALID,1010.027,VALID,0.0,VALID,104.0,VALID,0.0,VALID,24.183,VALID,62.0,VALID,0.154,
2011-09-13, 00:47:04,VALID,1010.025,VALID,0.0,VALID,104.0,VALID,0.0,VALID,24.181,VALID,62.0,VALID,0.0,
2011-09-13, 00:48:04,VALID,1010.043,VALID,0.0,VALID,104.0,VALID,0.0,VALID,24.181,VALID,62.0,VALID,0.105,
2011-09-13, 00:49:04,VALID,1010.038,VALID,0.0,VALID,104.0,VALID,0.0,VALID,24.181,VALID,62.0,VALID,0.0,
2011-09-13, 00:50:04,VALID,1010.036,VALID,0.0,VALID,104.0,VALID,0.0,VALID,24.183,VALID,62.0,VALID,0.098,
2011-09-13, 00:51:04,VALID,1010.081,VALID,0.0,VALID,104.0,VALID,0.0,VALID,24.162,VALID,62.0,VALID,0.262,
2011-09-13, 00:52:04,VALID,1010.071,VALID,0.0,VALID,104.0,VALID,0.0,VALID,24.181,VALID,101.0,VALID,0.671,
2011-09-13, 00:53:04,VALID,1010.074,VALID,0.0,VALID,104.0,VALID,0.0,VALID,24.201,VALID,117.0,VALID,0.557,
2011-09-13, 00:54:04,VALID,1010.092,VALID,0.0,VALID,104.0,VALID,0.0,VALID,24.201,VALID,117.0,VALID,0.584,
2011-09-13, 00:55:04,VALID,1010.094,VALID,0.0,VALID,104.0,VALID,0.0,VALID,24.201,VALID,117.0,VALID,0.853,
2011-09-13, 00:56:04,VALID,1010.064,VALID,0.0,VALID,104.0,VALID,0.0,VALID,24.203,VALID,117.0,VALID,0.779,
2011-09-13, 00:57:04,VALID,1010.047,VALID,0.0,VALID,104.0,VALID,0.0,VALID,24.222,VALID,117.0,VALID,0.407,
2011-09-13, 00:58:04,VALID,1009.99,VALID,0.0,VALID,104.0,VALID,0.0,VALID,24.222,VALID,117.0,VALID,0.507,
2011-09-13, 00:59:04,VALID,1009.937,VALID,0.0,VALID,104.0,VALID,0.0,VALID,24.241,VALID,161.0,VALID,0.737,
2011-09-13, 01:00:04,VALID,1009.913,VALID,0.0,VALID,104.0,VALID,0.0,VALID,24.22,VALID,159.0,VALID,0.552,
2011-09-13, 01:01:04,VALID,1009.865,VALID,0.0,VALID,104.0,VALID,0.0,VALID,24.199,VALID,160.0,VALID,0.512,
2011-09-13, 01:02:04,VALID,1009.819,VALID,0.0,VALID,104.0,VALID,0.0,VALID,24.24,VALID,162.0,VALID,0.409,
2011-09-13, 01:03:04,VALID,1009.75,VALID,0.0,VALID,104.0,VALID,0.0,VALID,24.24,VALID,162.0,VALID,0.375,
2011-09-13, 01:04:04,VALID,1009.714,VALID,0.0,VALID,104.0,VALID,0.0,VALID,24.259,VALID,162.0,VALID,0.257,
2011-09-13, 01:05:04,VALID,1009.658,VALID,0.0,VALID,104.0,VALID,0.0,VALID,24.259,VALID,162.0,VALID,0.033,
2011-09-13, 01:06:04,VALID,1009.628,VALID,0.0,VALID,104.0,VALID,0.0,VALID,24.279,VALID,162.0,VALID,0.0,
2011-09-13, 01:07:04,VALID,1009.594,VALID,0.0,VALID,104.0,VALID,0.0,VALID,24.279,VALID,162.0,VALID,0.0,
2011-09-13, 01:08:04,VALID,1009.568,VALID,0.0,VALID,104.0,VALID,0.0,VALID,24.3,VALID,162.0,VALID,0.136,
2011-09-13, 01:09:04,VALID,1009.554,VALID,0.0,VALID,104.0,VALID,0.0,VALID,24.279,VALID,162.0,VALID,0.0,
2011-09-13, 01:10:04,VALID,1009.545,VALID,0.0,VALID,104.0,VALID,0.0,VALID,24.279,VALID,162.0,VALID,0.0,
2011-09-13, 01:11:04,VALID,1009.534,VALID,0.0,VALID,104.0,VALID,0.0,VALID,24.279,VALID,162.0,VALID,0.032,
2011-09-13, 01:12:04,VALID,1009.524,VALID,0.0,VALID,104.0,VALID,0.0,VALID,24.279,VALID,162.0,VALID,0.313,
2011-09-13, 01:13:04,VALID,1009.514,VALID,0.0,VALID,104.0,VALID,0.0,VALID,24.259,VALID,162.0,VALID,0.332,
2011-09-13, 01:14:04,VALID,1009.479,VALID,0.0,VALID,104.0,VALID,0.0,VALID,24.279,VALID,162.0,VALID,0.491,
2011-09-13, 01:15:04,VALID,1009.474,VALID,0.0,VALID,104.0,VALID,0.0,VALID,24.259,VALID,162.0,VALID,0.496,
2011-09-13, 01:16:04,VALID,1009.432,VALID,0.0,VALID,104.0,VALID,0.0,VALID,24.279,VALID,162.0,VALID,0.323,
2011-09-13, 01:17:04,VALID,1009.418,VALID,0.0,VALID,104.0,VALID,0.0,VALID,24.279,VALID,162.0,VALID,0.205,
2011-09-13, 01:18:04,VALID,1009.407,VALID,0.0,VALID,104.0,VALID,0.0,VALID,24.279,VALID,162.0,VALID,0.313,
2011-09-13, 01:19:04,VALID,1009.386,VALID,0.0,VALID,104.0,VALID,0.0,VALID,24.259,VALID,162.0,VALID,0.174,
2011-09-13, 01:20:04,VALID,1009.374,VALID,0.0,VALID,104.0,VALID,0.0,VALID,24.279,VALID,162.0,VALID,0.232,
2011-09-13, 01:21:04,VALID,1009.372,VALID,0.0,VALID,104.0,VALID,0.0,VALID,24.259,VALID,162.0,VALID,0.248,
2011-09-13, 01:22:04,VALID,1009.361,VALID,0.0,VALID,104.0,VALID,0.0,VALID,24.28,VALID,162.0,VALID,0.229,
2011-09-13, 01:23:04,VALID,1009.402,VALID,0.0,VALID,104.0,VALID,0.0,VALID,24.279,VALID,162.0,VALID,0.33,
2011-09-13, 01:24:04,VALID,1009.386,VALID,0.0,VALID,104.0,VALID,0.0,VALID,24.24,VALID,162.0,VALID,0.355,
2011-09-13, 01:25:04,VALID,1009.373,VALID,0.0,VALID,104.0,VALID,0.0,VALID,24.24,VALID,162.0,VALID,0.402,
2011-09-13, 01:26:04,VALID,1009.395,VALID,0.0,VALID,104.0,VALID,0.0,VALID,24.24,VALID,162.0,VALID,0.395,
2011-09-13, 01:27:04,VALID,1009.406,VALID,0.0,VALID,104.0,VALID,0.0,VALID,24.24,VALID,162.0,VALID,0.368,
2011-09-13, 01:28:04,VALID,1009.402,VALID,0.0,VALID,104.0,VALID,0.0,VALID,24.22,VALID,162.0,VALID,0.263,
2011-09-13, 01:29:04,VALID,1009.397,VALID,0.0,VALID,104.0,VALID,0.0,VALID,24.22,VALID,162.0,VALID,0.237,
2011-09-13, 01:30:04,VALID,1009.38,VALID,0.0,VALID,104.0,VALID,0.0,VALID,24.22,VALID,162.0,VALID,0.216,
2011-09-13, 01:31:04,VALID,1009.38,VALID,0.0,VALID,104.0,VALID,0.0,VALID,24.22,VALID,162.0,VALID,0.021,
2011-09-13, 01:32:04,VALID,1009.378,VALID,0.0,VALID,104.0,VALID,0.0,VALID,24.24,VALID,162.0,VALID,0.0,
2011-09-13, 01:33:04,VALID,1009.389,VALID,0.0,VALID,104.0,VALID,0.0,VALID,24.241,VALID,162.0,VALID,0.0,
2011-09-13, 01:34:04,VALID,1009.429,VALID,0.0,VALID,104.0,VALID,0.0,VALID,24.24,VALID,162.0,VALID,0.0,
2011-09-13, 01:35:04,VALID,1009.449,VALID,0.0,VALID,104.0,VALID,0.0,VALID,24.24,VALID,162.0,VALID,0.0,
2011-09-13, 01:36:04,VALID,1009.449,VALID,0.0,VALID,104.0,VALID,0.0,VALID,24.22,VALID,162.0,VALID,0.288,
2011-09-13, 01:37:04,VALID,1009.482,VALID,0.0,VALID,104.0,VALID,0.0,VALID,24.222,VALID,160.0,VALID,0.45,
2011-09-13, 01:38:04,VALID,1009.47,VALID,0.0,VALID,104.0,VALID,0.0,VALID,24.162,VALID,160.0,VALID,0.452,
2011-09-13, 01:39:04,VALID,1009.486,VALID,0.0,VALID,104.0,VALID,0.0,VALID,24.142,VALID,155.0,VALID,0.509,
2011-09-13, 01:40:04,VALID,1009.529,VALID,0.0,VALID,104.0,VALID,0.0,VALID,24.142,VALID,143.0,VALID,0.348,
2011-09-13, 01:41:04,VALID,1009.547,VALID,0.0,VALID,104.0,VALID,0.0,VALID,24.142,VALID,143.0,VALID,0.209,
2011-09-13, 01:42:04,VALID,1009.538,VALID,0.0,VALID,104.0,VALID,0.0,VALID,24.142,VALID,143.0,VALID,0.414,
2011-09-13, 01:43:04,VALID,1009.556,VALID,0.0,VALID,104.0,VALID,0.0,VALID,24.181,VALID,143.0,VALID,0.447,
2011-09-13, 01:44:04,VALID,1009.56,VALID,0.0,VALID,104.0,VALID,0.0,VALID,24.201,VALID,143.0,VALID,0.422,
2011-09-13, 01:45:04,VALID,1009.576,VALID,0.0,VALID,104.0,VALID,0.0,VALID,24.201,VALID,141.0,VALID,0.445,
2011-09-13, 01:46:04,VALID,1009.559,VALID,0.0,VALID,104.0,VALID,0.0,VALID,24.22,VALID,136.0,VALID,0.716,
2011-09-13, 01:47:04,VALID,1009.519,VALID,0.0,VALID,104.0,VALID,0.0,VALID,24.24,VALID,136.0,VALID,0.604,
2011-09-13, 01:48:04,VALID,1009.513,VALID,0.0,VALID,104.0,VALID,0.0,VALID,24.24,VALID,136.0,VALID,0.64,
2011-09-13, 01:49:04,VALID,1009.451,VALID,0.0,VALID,104.0,VALID,0.0,VALID,24.24,VALID,136.0,VALID,0.451,
2011-09-13, 01:50:04,VALID,1009.463,VALID,0.0,VALID,104.0,VALID,0.0,VALID,24.218,VALID,136.0,VALID,0.525,
2011-09-13, 01:51:04,VALID,1009.433,VALID,0.0,VALID,104.0,VALID,0.0,VALID,24.22,VALID,136.0,VALID,0.305,
2011-09-13, 01:52:04,VALID,1009.39,VALID,0.0,VALID,104.0,VALID,0.0,VALID,24.22,VALID,135.0,VALID,0.344,
2011-09-13, 01:53:04,VALID,1009.405,VALID,0.0,VALID,104.0,VALID,0.0,VALID,24.222,VALID,135.0,VALID,0.396,
2011-09-13, 01:54:04,VALID,1009.43,VALID,0.0,VALID,104.0,VALID,0.0,VALID,24.222,VALID,135.0,VALID,0.206,
2011-09-13, 01:55:04,VALID,1009.398,VALID,0.0,VALID,104.0,VALID,0.0,VALID,24.201,VALID,135.0,VALID,0.635,
2011-09-13, 01:56:04,VALID,1009.422,VALID,0.0,VALID,104.0,VALID,0.0,VALID,24.22,VALID,133.0,VALID,0.605,
2011-09-13, 01:57:04,VALID,1009.425,VALID,0.0,VALID,104.0,VALID,0.0,VALID,24.22,VALID,133.0,VALID,0.292,
2011-09-13, 01:58:04,VALID,1009.421,VALID,0.0,VALID,104.0,VALID,0.0,VALID,24.201,VALID,133.0,VALID,0.476,
2011-09-13, 01:59:04,VALID,1009.419,VALID,0.0,VALID,104.0,VALID,0.0,VALID,24.201,VALID,133.0,VALID,0.426,
2011-09-13, 02:00:04,VALID,1009.419,VALID,0.0,VALID,104.0,VALID,0.0,VALID,24.22,VALID,133.0,VALID,0.413,
2011-09-13, 02:01:04,VALID,1009.404,VALID,0.0,VALID,104.0,VALID,0.0,VALID,24.201,VALID,122.0,VALID,0.535,
2011-09-13, 02:02:04,VALID,1009.408,VALID,0.0,VALID,104.0,VALID,0.0,VALID,24.201,VALID,122.0,VALID,0.686,
2011-09-13, 02:03:04,VALID,1009.371,VALID,0.0,VALID,104.0,VALID,0.0,VALID,24.181,VALID,122.0,VALID,0.308,
2011-09-13, 02:04:04,VALID,1009.369,VALID,0.0,VALID,104.0,VALID,0.0,VALID,24.162,VALID,134.0,VALID,0.561,
2011-09-13, 02:05:04,VALID,1009.342,VALID,0.0,VALID,104.0,VALID,0.0,VALID,24.162,VALID,135.0,VALID,0.325,
2011-09-13, 02:06:04,VALID,1009.326,VALID,0.0,VALID,104.0,VALID,0.0,VALID,24.162,VALID,135.0,VALID,0.487,
2011-09-13, 02:07:04,VALID,1009.311,VALID,0.0,VALID,104.0,VALID,0.0,VALID,24.162,VALID,135.0,VALID,0.262,
2011-09-13, 02:08:04,VALID,1009.308,VALID,0.0,VALID,104.0,VALID,0.0,VALID,24.162,VALID,135.0,VALID,0.516,
2011-09-13, 02:09:04,VALID,1009.301,VALID,0.0,VALID,104.0,VALID,0.0,VALID,24.142,VALID,135.0,VALID,0.386,
2011-09-13, 02:10:04,VALID,1009.301,VALID,0.0,VALID,104.0,VALID,0.0,VALID,24.144,VALID,135.0,VALID,0.505,
2011-09-13, 02:11:04,VALID,1009.282,VALID,0.0,VALID,104.0,VALID,0.0,VALID,24.123,VALID,141.0,VALID,0.598,
2011-09-13, 02:12:04,VALID,1009.252,VALID,0.0,VALID,104.0,VALID,0.0,VALID,24.125,VALID,153.0,VALID,0.782,
2011-09-13, 02:13:04,VALID,1009.241,VALID,0.0,VALID,104.0,VALID,0.0,VALID,24.103,VALID,154.0,VALID,1.022,
2011-09-13, 02:14:04,VALID,1009.237,VALID,0.0,VALID,104.0,VALID,0.0,VALID,24.084,VALID,151.0,VALID,0.786,
2011-09-13, 02:15:04,VALID,1009.246,VALID,0.0,VALID,104.0,VALID,0.0,VALID,24.084,VALID,152.0,VALID,0.525,
2011-09-13, 02:16:04,VALID,1009.24,VALID,0.0,VALID,104.0,VALID,0.0,VALID,24.084,VALID,152.0,VALID,0.593,
2011-09-13, 02:17:04,VALID,1009.253,VALID,0.0,VALID,104.0,VALID,0.0,VALID,24.064,VALID,152.0,VALID,0.394,
2011-09-13, 02:18:04,VALID,1009.201,VALID,0.0,VALID,104.0,VALID,0.0,VALID,24.064,VALID,152.0,VALID,0.791,
2011-09-13, 02:19:04,VALID,1009.221,VALID,0.0,VALID,104.0,VALID,0.0,VALID,24.064,VALID,164.0,VALID,0.62,
2011-09-13, 02:20:04,VALID,1009.196,VALID,0.0,VALID,104.0,VALID,0.0,VALID,24.045,VALID,184.0,VALID,0.607,
2011-09-13, 02:21:04,VALID,1009.219,VALID,0.0,VALID,104.0,VALID,0.0,VALID,24.047,VALID,175.0,VALID,0.628,
2011-09-13, 02:22:04,VALID,1009.196,VALID,0.0,VALID,104.0,VALID,0.0,VALID,24.025,VALID,168.0,VALID,0.947,
2011-09-13, 02:23:04,VALID,1009.215,VALID,0.0,VALID,104.0,VALID,0.0,VALID,24.006,VALID,167.0,VALID,0.736,
2011-09-13, 02:24:04,VALID,1009.205,VALID,0.0,VALID,104.0,VALID,0.0,VALID,24.006,VALID,176.0,VALID,0.537,
2011-09-13, 02:25:04,VALID,1009.192,VALID,0.0,VALID,104.0,VALID,0.0,VALID,23.986,VALID,176.0,VALID,0.575,
2011-09-13, 02:26:04,VALID,1009.19,VALID,0.0,VALID,104.0,VALID,0.0,VALID,23.986,VALID,171.0,VALID,0.609,
2011-09-13, 02:27:04,VALID,1009.171,VALID,0.0,VALID,104.0,VALID,0.0,VALID,23.988,VALID,174.0,VALID,0.718,
2011-09-13, 02:28:04,VALID,1009.164,VALID,0.0,VALID,104.0,VALID,0.0,VALID,23.967,VALID,177.0,VALID,0.693,
2011-09-13, 02:29:04,VALID,1009.141,VALID,0.0,VALID,104.0,VALID,0.0,VALID,23.967,VALID,171.0,VALID,0.654,
2011-09-13, 02:30:04,VALID,1009.115,VALID,0.0,VALID,104.0,VALID,0.0,VALID,23.947,VALID,168.0,VALID,0.625,
2011-09-13, 02:31:04,VALID,1009.083,VALID,0.0,VALID,104.0,VALID,0.0,VALID,23.947,VALID,167.0,VALID,0.22,
2011-09-13, 02:32:04,VALID,1009.082,VALID,0.0,VALID,104.0,VALID,0.0,VALID,23.988,VALID,167.0,VALID,0.159,
2011-09-13, 02:33:04,VALID,1009.054,VALID,0.0,VALID,104.0,VALID,0.0,VALID,23.967,VALID,167.0,VALID,0.141,
2011-09-13, 02:34:04,VALID,1009.034,VALID,0.0,VALID,104.0,VALID,0.0,VALID,23.947,VALID,167.0,VALID,0.44,
2011-09-13, 02:35:04,VALID,1008.99,VALID,0.0,VALID,104.0,VALID,0.0,VALID,23.947,VALID,167.0,VALID,0.231,
2011-09-13, 02:36:04,VALID,1008.972,VALID,0.0,VALID,104.0,VALID,0.0,VALID,23.947,VALID,167.0,VALID,0.366,
2011-09-13, 02:37:04,VALID,1008.928,VALID,0.0,VALID,104.0,VALID,0.0,VALID,23.947,VALID,167.0,VALID,0.297,
2011-09-13, 02:38:04,VALID,1008.877,VALID,0.0,VALID,104.0,VALID,0.0,VALID,23.928,VALID,167.0,VALID,0.128,
2011-09-13, 02:39:04,VALID,1008.853,VALID,0.0,VALID,104.0,VALID,0.0,VALID,23.928,VALID,159.0,VALID,0.502,
2011-09-13, 02:40:04,VALID,1008.838,VALID,0.0,VALID,104.0,VALID,0.0,VALID,23.947,VALID,100.0,VALID,0.656,
2011-09-13, 02:41:04,VALID,1008.814,VALID,0.0,VALID,104.0,VALID,0.0,VALID,23.947,VALID,86.0,VALID,0.936,
2011-09-13, 02:42:04,VALID,1008.813,VALID,0.0,VALID,104.0,VALID,0.0,VALID,23.947,VALID,95.0,VALID,0.553,
2011-09-13, 02:43:04,VALID,1008.813,VALID,0.0,VALID,104.0,VALID,0.0,VALID,23.947,VALID,95.0,VALID,0.358,
2011-09-13, 02:44:04,VALID,1008.764,VALID,0.0,VALID,104.0,VALID,0.0,VALID,23.928,VALID,95.0,VALID,0.382,
2011-09-13, 02:45:04,VALID,1008.785,VALID,0.0,VALID,104.0,VALID,0.0,VALID,23.928,VALID,95.0,VALID,0.2,
2011-09-13, 02:46:04,VALID,1008.747,VALID,0.0,VALID,104.0,VALID,0.0,VALID,23.93,VALID,95.0,VALID,0.0,
2011-09-13, 02:47:04,VALID,1008.74,VALID,0.0,VALID,104.0,VALID,0.0,VALID,23.908,VALID,95.0,VALID,0.0,
2011-09-13, 02:48:04,VALID,1008.75,VALID,0.0,VALID,104.0,VALID,0.0,VALID,23.889,VALID,95.0,VALID,0.0,
2011-09-13, 02:49:04,VALID,1008.736,VALID,0.0,VALID,104.0,VALID,0.0,VALID,23.869,VALID,95.0,VALID,0.0,
2011-09-13, 02:50:04,VALID,1008.714,VALID,0.0,VALID,104.0,VALID,0.0,VALID,23.869,VALID,95.0,VALID,0.0,
2011-09-13, 02:51:04,VALID,1008.709,VALID,0.0,VALID,104.0,VALID,0.0,VALID,23.83,VALID,95.0,VALID,0.338,
2011-09-13, 02:52:04,VALID,1008.689,VALID,0.0,VALID,104.0,VALID,0.0,VALID,23.791,VALID,95.0,VALID,0.479,
2011-09-13, 02:53:04,VALID,1008.676,VALID,0.0,VALID,104.0,VALID,0.0,VALID,23.733,VALID,95.0,VALID,0.445,
2011-09-13, 02:54:04,VALID,1008.67,VALID,0.0,VALID,104.0,VALID,0.0,VALID,23.675,VALID,95.0,VALID,0.475,
2011-09-13, 02:55:04,VALID,1008.683,VALID,0.0,VALID,104.0,VALID,0.0,VALID,23.655,VALID,95.0,VALID,0.398,
2011-09-13, 02:56:04,VALID,1008.706,VALID,0.0,VALID,104.0,VALID,0.0,VALID,23.636,VALID,95.0,VALID,0.472,
2011-09-13, 02:57:04,VALID,1008.734,VALID,0.0,VALID,104.0,VALID,0.0,VALID,23.616,VALID,94.0,VALID,0.535,
2011-09-13, 02:58:04,VALID,1008.725,VALID,0.0,VALID,104.0,VALID,0.0,VALID,23.616,VALID,92.0,VALID,0.354,
2011-09-13, 02:59:04,VALID,1008.709,VALID,0.0,VALID,104.0,VALID,0.0,VALID,23.616,VALID,79.0,VALID,0.477,
2011-09-13, 03:00:04,VALID,1008.7,VALID,0.0,VALID,104.0,VALID,0.0,VALID,23.657,VALID,79.0,VALID,0.382,
2011-09-13, 03:01:04,VALID,1008.71,VALID,0.0,VALID,104.0,VALID,0.0,VALID,23.636,VALID,79.0,VALID,0.21,
2011-09-13, 03:02:04,VALID,1008.694,VALID,0.0,VALID,104.0,VALID,0.0,VALID,23.616,VALID,79.0,VALID,0.056,
2011-09-13, 03:03:04,VALID,1008.717,VALID,0.0,VALID,104.0,VALID,0.0,VALID,23.597,VALID,79.0,VALID,0.254,
2011-09-13, 03:04:04,VALID,1008.723,VALID,0.0,VALID,104.0,VALID,0.0,VALID,23.618,VALID,79.0,VALID,0.0,
2011-09-13, 03:05:04,VALID,1008.703,VALID,0.0,VALID,104.0,VALID,0.0,VALID,23.577,VALID,79.0,VALID,0.019,
2011-09-13, 03:06:04,VALID,1008.698,VALID,0.0,VALID,104.0,VALID,0.0,VALID,23.597,VALID,79.0,VALID,0.387,
2011-09-13, 03:07:04,VALID,1008.726,VALID,0.0,VALID,104.0,VALID,0.0,VALID,23.616,VALID,77.0,VALID,0.367,
2011-09-13, 03:08:04,VALID,1008.747,VALID,0.0,VALID,104.0,VALID,0.0,VALID,23.636,VALID,77.0,VALID,0.0,
2011-09-13, 03:09:04,VALID,1008.733,VALID,0.0,VALID,104.0,VALID,0.0,VALID,23.636,VALID,77.0,VALID,0.0,
2011-09-13, 03:10:04,VALID,1008.758,VALID,0.0,VALID,104.0,VALID,0.106,VALID,23.616,VALID,77.0,VALID,0.0,
2011-09-13, 03:11:04,VALID,1008.752,VALID,0.0,VALID,104.0,VALID,0.0,VALID,23.618,VALID,77.0,VALID,0.0,
2011-09-13, 03:12:04,VALID,1008.767,VALID,0.0,VALID,104.0,VALID,0.0,VALID,23.597,VALID,77.0,VALID,0.0,
2011-09-13, 03:13:04,VALID,1008.736,VALID,0.0,VALID,104.0,VALID,0.0,VALID,23.577,VALID,77.0,VALID,0.185,
2011-09-13, 03:14:04,VALID,1008.741,VALID,0.0,VALID,104.0,VALID,0.106,VALID,23.577,VALID,77.0,VALID,0.004,
2011-09-13, 03:15:04,VALID,1008.739,VALID,0.0,VALID,104.0,VALID,0.0,VALID,23.577,VALID,77.0,VALID,0.167,
2011-09-13, 03:16:04,VALID,1008.748,VALID,0.0,VALID,104.0,VALID,0.106,VALID,23.558,VALID,77.0,VALID,0.428,
2011-09-13, 03:17:04,VALID,1008.734,VALID,0.0,VALID,104.0,VALID,0.106,VALID,23.538,VALID,77.0,VALID,0.13,
2011-09-13, 03:18:04,VALID,1008.724,VALID,0.0,VALID,104.0,VALID,0.106,VALID,23.519,VALID,77.0,VALID,0.441,
2011-09-13, 03:19:04,VALID,1008.726,VALID,0.0,VALID,104.0,VALID,0.0,VALID,23.519,VALID,77.0,VALID,0.375,
2011-09-13, 03:20:04,VALID,1008.699,VALID,0.0,VALID,104.0,VALID,0.0,VALID,23.519,VALID,77.0,VALID,0.22,
2011-09-13, 03:21:04,VALID,1008.694,VALID,0.0,VALID,104.0,VALID,0.0,VALID,23.519,VALID,77.0,VALID,0.217,
2011-09-13, 03:22:04,VALID,1008.696,VALID,0.0,VALID,104.0,VALID,0.0,VALID,23.48,VALID,77.0,VALID,0.272,
2011-09-13, 03:23:04,VALID,1008.703,VALID,0.0,VALID,104.0,VALID,0.0,VALID,23.499,VALID,77.0,VALID,0.25,
2011-09-13, 03:24:04,VALID,1008.726,VALID,0.0,VALID,104.0,VALID,0.106,VALID,23.48,VALID,77.0,VALID,0.171,
2011-09-13, 03:25:05,VALID,1008.712,VALID,0.0,VALID,104.0,VALID,0.106,VALID,23.458,VALID,76.0,VALID,0.109,
2011-09-13, 03:26:04,VALID,1008.715,VALID,0.0,VALID,104.0,VALID,0.0,VALID,23.48,VALID,76.0,VALID,0.234,
2011-09-13, 03:27:05,VALID,1008.729,VALID,0.0,VALID,104.0,VALID,0.0,VALID,23.481,VALID,76.0,VALID,0.093,
2011-09-13, 03:28:05,VALID,1008.731,VALID,0.0,VALID,104.0,VALID,0.0,VALID,23.481,VALID,76.0,VALID,0.152,
2011-09-13, 03:29:05,VALID,1008.729,VALID,0.0,VALID,104.0,VALID,0.106,VALID,23.46,VALID,77.0,VALID,0.13,
2011-09-13, 03:30:05,VALID,1008.756,VALID,0.0,VALID,104.0,VALID,0.0,VALID,23.441,VALID,76.0,VALID,0.17,
2011-09-13, 03:31:05,VALID,1008.765,VALID,0.0,VALID,104.0,VALID,0.0,VALID,23.441,VALID,77.0,VALID,0.125,
2011-09-13, 03:32:05,VALID,1008.749,VALID,0.0,VALID,104.0,VALID,0.106,VALID,23.421,VALID,76.0,VALID,0.183,
2011-09-13, 03:33:05,VALID,1008.747,VALID,0.0,VALID,104.0,VALID,0.106,VALID,23.421,VALID,77.0,VALID,0.17,
2011-09-13, 03:34:05,VALID,1008.76,VALID,0.0,VALID,104.0,VALID,0.106,VALID,23.402,VALID,77.0,VALID,0.184,
2011-09-13, 03:35:05,VALID,1008.744,VALID,0.0,VALID,104.0,VALID,0.106,VALID,23.402,VALID,77.0,VALID,0.299,
2011-09-13, 03:36:05,VALID,1008.776,VALID,0.0,VALID,104.0,VALID,0.0,VALID,23.382,VALID,77.0,VALID,0.369,
2011-09-13, 03:37:05,VALID,1008.789,VALID,0.0,VALID,104.0,VALID,0.0,VALID,23.382,VALID,77.0,VALID,0.296,
2011-09-13, 03:38:05,VALID,1008.817,VALID,0.0,VALID,104.0,VALID,0.0,VALID,23.384,VALID,77.0,VALID,0.266,
2011-09-13, 03:39:05,VALID,1008.836,VALID,0.0,VALID,104.0,VALID,0.106,VALID,23.363,VALID,77.0,VALID,0.207,
2011-09-13, 03:40:05,VALID,1008.878,VALID,0.0,VALID,104.0,VALID,0.106,VALID,23.343,VALID,77.0,VALID,0.156,
2011-09-13, 03:41:05,VALID,1008.9,VALID,0.0,VALID,104.0,VALID,0.106,VALID,23.322,VALID,77.0,VALID,0.136,
2011-09-13, 03:42:05,VALID,1008.94,VALID,0.0,VALID,104.0,VALID,0.0,VALID,23.324,VALID,76.0,VALID,0.342,
2011-09-13, 03:43:05,VALID,1008.975,VALID,0.0,VALID,104.0,VALID,0.0,VALID,23.324,VALID,77.0,VALID,0.285,